Terug naar catalogus

CSTP-4.1

ActiefWetenschapSSO
NORAD 64884·PAYLOAD·🇷🇺 Russia
Deze satellietnaam is nog niet bevestigd door officiële bronnen.

Gelanceerd Jul 25, 2025 vanaf Vostochny Cosmodrome

Loading…

Volgende Passages (komende 24 uur)

TLE

VersSource: Space-Track

Epoch: Sep 14, 2026, 14:50 UTC

1 64884U 25155J   26257.61810028  .00007586  00000-0  25695-3 0  9992
2 64884  97.4679 226.5267 0006776 193.0031 167.1036 15.30845621 94436

Volg CSTP-4.1 in realtime met AllMySat

Download on the App Store